Regional Weather Roundup
Issued by NWS San Angelo, TX

Home | Current Version | Previous Version | Text Only | Print | Product List | Glossary On
Versions: 1 2 3 4 5 6 7 8 9 10 11 12 13 14 15 16 17 18 19 20 21 22 23 24 25 26 27 28 29 30 31 32 33 34 35 36 37 38 39 40 41 42 43 44 45 46 47 48 49 50
000
ASUS44 KSJT 210002
RWRSJT
WEST CENTRAL TEXAS REGIONAL WEATHER ROUNDUP
NATIONAL WEATHER SERVICE SAN ANGELO TX
700 PM CDT SUN APR 20 2014

NOTE: "FAIR" INDICATES FEW OR NO CLOUDS BELOW 12,000 FEET WITH NO
SIGNIFICANT WEATHER AND/OR OBSTRUCTIONS TO VISIBILITY.

TXZ049-054-064>066-071>073-076>078-098-099-113-114-127-128-139-140-
154-155-168>170-210100
...LOCATIONS ACROSS WEST CENTRAL TEXAS...

CITY           SKY/WX    TMP DP  RH WIND       PRES   REMARKS
SAN ANGELO     PTSUNNY   74  63  68 S13       29.99F
ABILENE        CLOUDY    68  62  81 S12       30.01S
DYESS AFB      CLOUDY    68  63  82 S12       30.00S
JUNCTION       LGT RAIN  67  64  90 S9        30.03F
SWEETWATER     NOT AVBL
BROWNWOOD      CLOUDY    66  64  94 SE7       30.03F
COLEMAN        NOT AVBL
SONORA         NOT AVBL
OZONA          NOT AVBL
BRADY          NOT AVBL
$$

TEXAS PANHANDLE/OKLAHOMA PANHANDLE

CITY           SKY/WX    TMP DP  RH WIND       PRES   REMARKS
AMARILLO       CLOUDY    68  46  45 W14       29.95R
BORGER         CLOUDY    70  49  47 S15G23    29.92R
CANADIAN       NOT AVBL
DALHART        PTSUNNY   70  43  37 VRB5      29.96F
DUMAS          NOT AVBL
GUYMON         NOT AVBL
HEREFORD       NOT AVBL
PAMPA          NOT AVBL
PERRYTON       NOT AVBL
$$

SOUTHERN PANHANDLE/SOUTH PLAINS/ROLLING PLAINS

CITY           SKY/WX    TMP DP  RH WIND       PRES   REMARKS
LUBBOCK        PTSUNNY   76  49  38 SW14      29.95S
SNYDER         SUNNY     75  59  58 S12G20    29.98S
CHILDRESS      TSTM      67  59  75 E14       29.91F
SEMINOLE       CLEAR     79  42  27 SW12G17   29.99S
$$

PERMIAN BASIN

CITY           SKY/WX    TMP DP  RH WIND       PRES   REMARKS
MIDLAND        MOSUNNY   80  49  33 SW10      29.98S
ODESSA         MOSUNNY   80  42  25 SW12      29.98S
WINK           MOSUNNY   82  39  21 W20G26    29.95S
$$

FAR WEST/SOUTHWEST MOUNTAINS/TRANS PECOS

CITY           SKY/WX    TMP DP  RH WIND       PRES   REMARKS
ALPINE         NOT AVBL
DRYDEN           N/A     81  60  48 E17G23    29.96F
EL PASO        MOSUNNY   78  34  20 W16       30.04S
FORT STOCKTON  PTSUNNY   81  43  26 SW6       29.99S
GUADALUPE PASS SUNNY     69  37  30 W26G37    30.12R
MARFA          MOSUNNY   75  30  19 W13       30.11S
PECOS          CLEAR     83  40  22 W18       29.96S
$$

DALLAS/FORT WORTH METROPLEX

CITY           SKY/WX    TMP DP  RH WIND       PRES   REMARKS
DFW AIRPORT    TSTM      71  59  65 SW5       30.06R
FTW MEACHAM    LGT RAIN  65  63  93 N3        30.06R FOG
DAL-EXECUTIVE  CLOUDY    73  55  53 SE3       30.04R
GRAND PRAIRIE  CLOUDY    72  55  56 W6        30.06S
ADDISON        NOT AVBL
MESQUITE       PTCLDY    72  55  56 SE3       30.05F
LANCASTER      CLOUDY    71  55  55 CALM      30.05S
$$

NORTH CENTRAL TEXAS

CITY           SKY/WX    TMP DP  RH WIND       PRES   REMARKS
SHRMAN/DENISON RAIN      63  59  88 SW5       30.13R
GAINESVILLE    NOT AVBL
BRIDGEPORT     CLOUDY    62  62  99 E5        30.07S THUNDER
DENTON         RAIN      61  60  97 NE7       30.07F FOG
WAXAHACHIE     CLOUDY    72  55  55 SE3       30.04F
GRANBURY       CLOUDY    66  64  90 NE3       30.05S
$$

WESTERN NORTH TEXAS

CITY           SKY/WX    TMP DP  RH WIND       PRES   REMARKS
WICHITA FALLS  PTSUNNY   66  59  78 S13       30.02R
VERNON         PTCLDY    71  60  67 SE21      29.98F
BRECKENRIDGE   LGT RAIN  67  66  97 SE8       30.02F
COMANCHE       CLOUDY    66  65  97 S7        30.04F FOG
$$

CENTRAL AND SOUTH CENTRAL TEXAS

CITY           SKY/WX    TMP DP  RH WIND       PRES   REMARKS
AUSTIN/BERGSTM PTSUNNY   75  58  55 SE10      30.02F
WACO           CLOUDY    73  58  59 S8        30.03R
HILLSBORO      MOCLDY    75  56  50 SE9       30.02F
TEMPLE         CLOUDY    72  57  60 S8        30.07R
KILLEEN-GRAY   NOT AVBL
FORT HOOD      NOT AVBL
GEORGETOWN     NOT AVBL
LAGO VISTA     CLOUDY    71  61  71 S6        30.05S
SAN MARCOS     CLOUDY    75  55  50 SE13      30.04F
NEW BRAUNFELS  CLOUDY    75  60  59 SE15      30.01F
RANDOLPH AFB   NOT AVBL
SAN ANTONIO    CLOUDY    75  62  64 SE7       30.02F
STINSON        CLOUDY    76  62  62 SE8       30.00S
PLEASANTON     NOT AVBL
LA GRANGE      SUNNY     76  59  54 S10       30.03S
GIDDINGS       MOCLDY    76  55  47 S5        30.07S
$$

EAST TEXAS

CITY           SKY/WX    TMP DP  RH WIND       PRES   REMARKS
PARIS          CLOUDY    72  59  64 SW3       30.07F
CLARKSVILLE    CLOUDY    75  57  53 CALM      30.07S
TYLER          CLOUDY    76  53  44 SW3       30.05S
LONGVIEW       MOCLDY    77  56  48 S6        30.04S
PALESTINE      CLOUDY    78  55  44 S5        30.07S
NACOGDOCHES    CLEAR     79  55  44 S7        30.05S
$$

TEXAS HILL COUNTRY AND EDWARDS PLATEAU

CITY           SKY/WX    TMP DP  RH WIND       PRES   REMARKS
LLANO          NOT AVBL
HORSESHOE BAY  CLOUDY    71  60  69 SE6       30.03S
KERRVILLE      NOT AVBL
FREDERICKSBRG  NOT AVBL
ROCKSPRINGS    NOT AVBL
HONDO          CLOUDY    74  64  71 SE10      30.04S
UVALDE         CLOUDY    70  68  92 E6        30.03R
DEL RIO        PTSUNNY   76  66  71 E10       29.98R
$$

SOUTHEAST TEXAS

CITY           SKY/WX    TMP DP  RH WIND       PRES   REMARKS
COLLEGE STN    PTSUNNY   77  58  51 S9        30.04S
CALDWELL       NOT AVBL
CROCKETT       NOT AVBL
BRENHAM        NOT AVBL
HUNTSVILLE     SUNNY     77  52  41 VRB5      30.05S
CONROE         SUNNY     74  54  49 SE7G17    30.06F
HOUSTON BUSH   MOSUNNY   76  53  44 SE14      30.06S
HOUSTON HOBBY  MOSUNNY   73  55  53 S12       30.07S
PERLAND        SUNNY     73  57  57 S9        30.09S
WHARTON        CLOUDY    73  58  60 S10       30.07S
$$

THE UPPER TEXAS COAST

CITY           SKY/WX    TMP DP  RH WIND       PRES   REMARKS
ORANGE         CLEAR     75  53  46 S6        30.10S
PORT ARTHUR    CLEAR     74  54  49 S8        30.08F
GALVESTON      CLEAR     70  64  81 SE8       30.09F
ANGLETON       SUNNY     72  61  68 SE10      30.08F
BAY CITY       NOT AVBL
$$

TEXAS COASTAL BEND, RIO GRANDE PLAINS DEEP SOUTH TEXAS

CITY           SKY/WX    TMP DP  RH WIND       PRES   REMARKS
VICTORIA       CLOUDY    75  57  53 S15       30.05F
BEEVILLE       CLOUDY    75  62  62 SE15      30.03S
ROCKPORT       SUNNY     73  64  73 SE16      30.04F
PORT ARANSAS   CLEAR     71  66  85 SE10      30.04F
PORT LAVACA    CLOUDY    72  61  67 SE15      30.06S
CORPUS CHRISTI PTSUNNY   74  63  68 SE17      30.04S
KINGSVILLE NAS PTSUNNY   74  65  73 SE16      30.03S
COTULLA        PTSUNNY   77  64  64 SE15G24   29.99F
LAREDO         MOSUNNY   80  66  62 SE15      30.00S
BROWNSVILLE    CLOUDY    75  66  73 SE17G25   30.02F
PORT ISABEL    PTSUNNY   74  66  76 SE16G24   30.02F
HEBBRONVILLE   NOT AVBL
MCALLEN        CLOUDY    76  64  66 SE16      30.00F
WESLACO        NOT AVBL
FALFURRIAS     CLOUDY    77  65  65 SE10G17   30.01S
EDINBURG       CLOUDY    78  64  61 SE12      30.00F
$$



USA.gov is the U.S. government's official web portal to all federal, state and local government web resources and services.